TimeCDT,TemperatureF,Dew PointF,Humidity,Sea Level PressureIn,VisibilityMPH,Wind Direction,Wind SpeedMPH,Gust SpeedMPH,PrecipitationIn,Events,Conditions,WindDirDegrees,DateUTC
12:52 AM,71.6,66.2,83,29.92,1.8,NW,4.6,-,0.23,Rain,Rain,310,2013-09-20 05:52:00
12:54 AM,71.1,66.9,87,29.90,1.8,NW,4.6,-,0.24,Rain,Heavy Rain,320,2013-09-20 05:54:00
1:09 AM,69.8,68.0,94,29.93,2.5,Calm,Calm,-,0.16,Rain,Heavy Rain,0,2013-09-20 06:09:00
1:21 AM,69.8,68.0,94,29.91,4.0,East,6.9,-,0.20,Rain,Rain,90,2013-09-20 06:21:00
1:54 AM,69.1,68.0,96,29.89,9.0,ESE,5.8,-,0.21,Rain,Light Rain,110,2013-09-20 06:54:00
2:54 AM,69.1,68.0,96,29.88,10.0,SW,4.6,-,0.01,,Overcast,230,2013-09-20 07:54:00
3:04 AM,69.8,66.2,88,29.92,1.8,West,8.1,19.6,0.13,Rain,Heavy Rain,260,2013-09-20 08:04:00
3:32 AM,69.8,66.2,88,29.90,2.5,Calm,Calm,-,0.38,Rain,Rain,0,2013-09-20 08:32:00
3:39 AM,69.8,66.2,88,29.89,4.0,Calm,Calm,-,0.40,Rain,Rain,0,2013-09-20 08:39:00
3:54 AM,68.0,66.9,96,29.88,7.0,South,3.5,-,0.42,Rain,Light Rain,170,2013-09-20 08:54:00
4:54 AM,69.1,68.0,96,29.89,10.0,WSW,5.8,-,0.01,Rain,Light Rain,240,2013-09-20 09:54:00
5:54 AM,69.1,66.9,93,29.88,9.0,NW,3.5,-,0.03,Rain,Light Rain,320,2013-09-20 10:54:00
6:37 AM,68.0,66.2,94,29.91,10.0,SSW,3.5,-,0.00,Rain,Light Rain,200,2013-09-20 11:37:00
6:54 AM,68.0,66.9,96,29.90,10.0,Calm,Calm,-,0.00,Rain,Light Rain,0,2013-09-20 11:54:00
7:54 AM,69.1,66.9,93,29.91,10.0,West,3.5,-,0.00,,Partly Cloudy,260,2013-09-20 12:54:00
8:14 AM,69.8,66.2,88,29.92,10.0,SW,5.8,-,N/A,,Mostly Cloudy,230,2013-09-20 13:14:00
8:52 AM,69.8,68.0,94,29.93,10.0,SSW,5.8,-,N/A,,Overcast,210,2013-09-20 13:52:00
8:54 AM,69.1,68.0,96,29.91,10.0,SW,4.6,-,N/A,,Overcast,220,2013-09-20 13:54:00
9:54 AM,70.0,68.0,93,29.92,10.0,WSW,4.6,-,N/A,,Overcast,240,2013-09-20 14:54:00
10:50 AM,71.6,66.2,83,29.92,10.0,WSW,6.9,-,N/A,,Overcast,240,2013-09-20 15:50:00
10:54 AM,71.1,66.9,87,29.91,10.0,WSW,5.8,-,N/A,,Overcast,240,2013-09-20 15:54:00
11:04 AM,71.6,68.0,88,29.92,10.0,WSW,5.8,-,N/A,,Overcast,240,2013-09-20 16:04:00
11:39 AM,71.6,66.2,83,29.92,4.0,WNW,9.2,-,0.01,Rain,Light Rain,290,2013-09-20 16:39:00
11:43 AM,69.8,68.0,94,29.92,2.5,West,8.1,-,0.01,Rain,Light Rain,280,2013-09-20 16:43:00
11:54 AM,70.0,68.0,93,29.91,2.5,West,5.8,-,0.01,Rain,Light Rain,270,2013-09-20 16:54:00
12:01 PM,69.8,68.0,94,29.92,6.0,WSW,5.8,-,0.00,Rain,Light Rain,250,2013-09-20 17:01:00
12:11 PM,69.8,68.0,94,29.92,10.0,West,6.9,-,0.00,,Overcast,260,2013-09-20 17:11:00
12:44 PM,71.6,68.0,88,29.91,10.0,NW,4.6,-,0.00,,Overcast,310,2013-09-20 17:44:00
12:54 PM,71.1,68.0,90,29.90,10.0,WNW,5.8,-,0.00,,Overcast,290,2013-09-20 17:54:00
1:09 PM,71.6,68.0,88,29.90,10.0,West,5.8,-,N/A,,Overcast,270,2013-09-20 18:09:00
1:19 PM,71.6,66.2,83,29.90,10.0,West,6.9,-,N/A,,Overcast,270,2013-09-20 18:19:00
1:25 PM,71.6,66.2,83,29.91,5.0,West,10.4,-,0.01,Rain,Light Rain,280,2013-09-20 18:25:00
1:27 PM,71.6,68.0,88,29.91,1.8,West,8.1,-,0.06,Rain,Rain,280,2013-09-20 18:27:00
1:32 PM,69.8,68.0,94,29.91,0.8,West,6.9,-,0.10,Rain,Heavy Rain,270,2013-09-20 18:32:00
1:37 PM,69.8,68.0,94,29.91,1.0,NW,12.7,-,0.12,Rain,Rain,320,2013-09-20 18:37:00
1:48 PM,69.8,66.2,88,29.90,3.0,NW,11.5,-,0.13,Rain,Light Rain,320,2013-09-20 18:48:00
1:54 PM,69.1,66.9,93,29.89,9.0,NNW,11.5,-,0.13,Rain,Light Rain,330,2013-09-20 18:54:00
2:46 PM,69.8,66.2,88,29.89,10.0,NW,8.1,-,N/A,,Scattered Clouds,310,2013-09-20 19:46:00
2:54 PM,70.0,64.9,84,29.88,10.0,NW,10.4,-,N/A,,Mostly Cloudy,310,2013-09-20 19:54:00
3:10 PM,71.6,64.4,78,29.89,10.0,NW,8.1,-,N/A,,Scattered Clouds,310,2013-09-20 20:10:00
3:54 PM,71.1,62.1,73,29.88,10.0,NW,9.2,-,N/A,,Mostly Cloudy,320,2013-09-20 20:54:00
4:54 PM,69.1,61.0,75,29.86,10.0,NNW,8.1,-,N/A,,Partly Cloudy,340,2013-09-20 21:54:00
5:54 PM,68.0,61.0,78,29.88,10.0,NW,4.6,-,N/A,,Clear,320,2013-09-20 22:54:00
6:54 PM,66.0,61.0,84,29.88,10.0,NNW,3.5,-,N/A,,Clear,340,2013-09-20 23:54:00
7:54 PM,64.9,59.0,81,29.88,10.0,Calm,Calm,-,N/A,,Clear,0,2013-09-21 00:54:00
8:54 PM,64.9,55.9,73,29.90,10.0,NNW,8.1,-,N/A,,Clear,330,2013-09-21 01:54:00
9:54 PM,62.1,54.0,75,29.91,10.0,North,5.8,-,N/A,,Clear,350,2013-09-21 02:54:00
10:54 PM,61.0,53.1,75,29.91,10.0,NW,6.9,-,N/A,,Clear,320,2013-09-21 03:54:00
11:54 PM,59.0,52.0,78,29.91,10.0,NW,6.9,-,N/A,,Clear,310,2013-09-21 04:54:00